Find Starlink 30890

NORAD ID: 58362 Int'l Des: 2023-177 Owner: SPXS Country: US Constellation: starlink operational
LEOCIRCULAR

当前视图

正在加载3D地球...

About Starlink 30890

Starlink 30890 (NORAD 58362) is a starlink constellation satellite (v2 mini) launched Nov 18, 2023 by SPXS of US. It operates in LEO, CIRCULAR orbit with a mass of 730.00 kg.

关于 Starlink 30890

正在加载描述...

即将过境

Passes for default location (London). Set your location on the main map for personalized predictions.

高度历史

Loading altitude history...

两行轨道根数

1 58362U 23177M 26171.25204946 .00001662 00000-0 69928-4 0 9996
2 58362 43.0017 131.3335 0000889 268.0423 92.0326 15.27568158143862
Epoch: Jun 20, 2026 • Age: 37 hours

当前状态

高度 488.3 km
速度 7.62 km/s
星下点 -23.20°S, 133.63°E
发射日期 Nov 18, 2023
运行时间 2.5 years
类型 internet

技术详情

分类 Payload
质量 730.00 kg
干质量 700.00 kg
总质量 730.00 kg
长度 0.30 m
直径 4.10 m
跨度 29.00 m
形状 Box + pan
制造商 SPXS
平台类型 Starlink V2M
阶段状态 In Orbit
所有者/国家 SPXS/US

Most Searched